TAM3818 SBBR-SBFL

Flight info

Callsign TAM3818
Flight time 1h 47m
Altitude 36000
Route KUKOL UZ5 IMTBI DCT EDREX
Aircraft A321/M-SDE3FGHIRWY/LB1

Departure

Time 2026-04-25 15:01
Airport Presidente Juscelino Kubitschek International Airport (SBBR)

Arrival

Time 2026-04-25 16:48
Airport Hercílio Luz International Airport (SBFL)
Time Latitude Longitude Altitude Speed Heading
2026-04-25 14:34 -15.87262 -47.91757 3472 ft 0 kts 356°
2026-04-25 14:47 -15.87294 -47.91758 3472 ft 4 kts 20°
2026-04-25 14:47 -15.87315 -47.91772 3472 ft 4 kts 61°
2026-04-25 14:48 -15.87321 -47.91788 3472 ft 1 kts 86°
2026-04-25 14:48 -15.87321 -47.91790 3472 ft 0 kts 86°
2026-04-25 14:50 -15.87320 -47.91781 3472 ft 3 kts 86°
2026-04-25 14:51 -15.87318 -47.91746 3472 ft 7 kts 86°
2026-04-25 14:51 -15.87323 -47.91683 3471 ft 10 kts 121°
2026-04-25 14:51 -15.87390 -47.91664 3471 ft 11 kts 178°
2026-04-25 14:51 -15.87469 -47.91658 3469 ft 13 kts 175°
2026-04-25 14:52 -15.87533 -47.91654 3466 ft 15 kts 176°
2026-04-25 14:52 -15.87646 -47.91646 3464 ft 17 kts 175°
2026-04-25 14:52 -15.87732 -47.91679 3463 ft 15 kts 248°
2026-04-25 14:52 -15.87739 -47.91751 3464 ft 15 kts 268°
2026-04-25 14:53 -15.87748 -47.91889 3465 ft 14 kts 264°
2026-04-25 14:53 -15.87756 -47.91987 3469 ft 13 kts 266°
2026-04-25 14:53 -15.87763 -47.92084 3468 ft 13 kts 266°
2026-04-25 14:53 -15.87768 -47.92176 3472 ft 13 kts 266°
2026-04-25 14:54 -15.87774 -47.92268 3474 ft 13 kts 266°
2026-04-25 14:54 -15.87780 -47.92359 3475 ft 13 kts 266°
2026-04-25 14:54 -15.87785 -47.92450 3476 ft 13 kts 266°
2026-04-25 14:54 -15.87790 -47.92544 3474 ft 14 kts 266°
2026-04-25 14:55 -15.87796 -47.92643 3475 ft 14 kts 265°
2026-04-25 14:55 -15.87803 -47.92740 3477 ft 14 kts 266°
2026-04-25 14:55 -15.87811 -47.92850 3481 ft 17 kts 266°
2026-04-25 14:55 -15.87820 -47.92987 3480 ft 21 kts 266°
2026-04-25 14:56 -15.87831 -47.93140 3486 ft 20 kts 266°
2026-04-25 14:56 -15.87839 -47.93272 3496 ft 17 kts 266°
2026-04-25 14:56 -15.87845 -47.93383 3506 ft 15 kts 266°
2026-04-25 14:56 -15.87852 -47.93489 3507 ft 15 kts 265°
2026-04-25 14:57 -15.87860 -47.93593 3507 ft 14 kts 265°
2026-04-25 14:57 -15.87866 -47.93686 3505 ft 12 kts 266°
2026-04-25 14:57 -15.87871 -47.93764 3510 ft 10 kts 266°
2026-04-25 14:57 -15.87875 -47.93836 3513 ft 10 kts 266°
2026-04-25 14:58 -15.87880 -47.93912 3509 ft 11 kts 266°
2026-04-25 14:58 -15.87910 -47.93987 3514 ft 12 kts 218°
2026-04-25 14:58 -15.87963 -47.93995 3510 ft 0 kts 177°
2026-04-25 14:59 -15.87978 -47.93994 3515 ft 5 kts 177°
2026-04-25 14:59 -15.88027 -47.93991 3513 ft 8 kts 177°
2026-04-25 14:59 -15.88065 -47.93957 3514 ft 9 kts 88°
2026-04-25 14:59 -15.88063 -47.93925 3510 ft 0 kts 87°
2026-04-25 15:00 -15.88051 -47.93725 3510 ft 64 kts 86°
2026-04-25 15:00 -15.88003 -47.93017 3483 ft 130 kts 86°
2026-04-25 15:00 -15.87931 -47.91853 3477 ft 181 kts 85°
2026-04-25 15:01 -15.87847 -47.90508 4308 ft 165 kts 86°
2026-04-25 15:01 -15.88158 -47.89359 4783 ft 181 kts 131°
2026-04-25 15:01 -15.89322 -47.88759 5069 ft 199 kts 171°
2026-04-25 15:01 -15.90740 -47.88557 5359 ft 215 kts 171°
2026-04-25 15:02 -15.92274 -47.88341 5629 ft 230 kts 171°
2026-04-25 15:02 -15.93945 -47.88129 5811 ft 255 kts 168°
2026-04-25 15:02 -15.95761 -47.87754 6083 ft 275 kts 166°
2026-04-25 15:02 -15.97673 -47.87316 6579 ft 288 kts 165°
2026-04-25 15:03 -15.99637 -47.86819 7253 ft 291 kts 163°
2026-04-25 15:03 -16.01584 -47.86275 8076 ft 289 kts 166°
2026-04-25 15:03 -16.03614 -47.86162 8631 ft 299 kts 188°
2026-04-25 15:03 -16.05558 -47.86906 9342 ft 299 kts 214°
2026-04-25 15:04 -16.06923 -47.88477 10165 ft 293 kts 241°
2026-04-25 15:04 -16.07545 -47.90503 10623 ft 301 kts 267°
2026-04-25 15:04 -16.07561 -47.92704 11031 ft 311 kts 270°
2026-04-25 15:04 -16.07696 -47.95015 11380 ft 325 kts 267°
2026-04-25 15:05 -16.07951 -47.97386 11784 ft 337 kts 260°
2026-04-25 15:05 -16.08673 -47.99738 12171 ft 348 kts 247°
2026-04-25 15:05 -16.09814 -48.01976 12821 ft 349 kts 242°
2026-04-25 15:06 -16.12166 -48.06426 13952 ft 354 kts 242°
2026-04-25 15:06 -16.13357 -48.08686 14456 ft 358 kts 242°
2026-04-25 15:06 -16.14559 -48.10971 14953 ft 363 kts 242°
2026-04-25 15:06 -16.15775 -48.13284 15449 ft 366 kts 242°
2026-04-25 15:07 -16.17005 -48.15625 15955 ft 370 kts 242°
2026-04-25 15:07 -16.18247 -48.17984 16439 ft 373 kts 241°
2026-04-25 15:07 -16.19500 -48.20367 16909 ft 377 kts 241°
2026-04-25 15:07 -16.20762 -48.22771 17362 ft 380 kts 241°
2026-04-25 15:08 -16.22046 -48.25189 17806 ft 384 kts 238°
2026-04-25 15:08 -16.23651 -48.27415 18222 ft 387 kts 226°
2026-04-25 15:08 -16.25692 -48.29257 18646 ft 390 kts 214°
2026-04-25 15:08 -16.28074 -48.30623 19068 ft 393 kts 202°
2026-04-25 15:09 -16.30668 -48.31569 19508 ft 397 kts 198°
2026-04-25 15:09 -16.33298 -48.32476 19938 ft 400 kts 198°
2026-04-25 15:09 -16.38625 -48.34309 20762 ft 406 kts 198°
2026-04-25 15:10 -16.41314 -48.35238 21153 ft 409 kts 198°
2026-04-25 15:10 -16.44019 -48.36174 21559 ft 412 kts 198°
2026-04-25 15:10 -16.49489 -48.38073 22309 ft 417 kts 198°
2026-04-25 15:11 -16.52255 -48.39035 22663 ft 420 kts 198°
2026-04-25 15:11 -16.55036 -48.40000 23010 ft 422 kts 198°
2026-04-25 15:11 -16.57832 -48.40970 23352 ft 425 kts 198°
2026-04-25 15:12 -16.63479 -48.42922 23992 ft 430 kts 198°
2026-04-25 15:12 -16.66324 -48.43912 24291 ft 432 kts 198°
2026-04-25 15:12 -16.69223 -48.44748 24617 ft 434 kts 190°
2026-04-25 15:12 -16.70194 -48.44913 24721 ft 434 kts 187°
2026-04-25 15:13 -16.75246 -48.45354 25244 ft 436 kts 184°
2026-04-25 15:13 -16.81323 -48.45856 25846 ft 440 kts 184°
2026-04-25 15:13 -16.84382 -48.46111 26143 ft 441 kts 184°
2026-04-25 15:14 -16.87442 -48.46367 26440 ft 443 kts 184°
2026-04-25 15:14 -16.90519 -48.46625 26733 ft 445 kts 184°
2026-04-25 15:14 -16.93611 -48.46884 27027 ft 446 kts 184°
2026-04-25 15:14 -16.96711 -48.47143 27315 ft 448 kts 184°
2026-04-25 15:15 -16.99825 -48.47404 27600 ft 449 kts 184°
2026-04-25 15:15 -17.02947 -48.47666 27890 ft 451 kts 184°
2026-04-25 15:15 -17.06075 -48.47929 28172 ft 452 kts 184°
2026-04-25 15:15 -17.09217 -48.48191 28447 ft 454 kts 184°
2026-04-25 15:16 -17.12377 -48.48455 28730 ft 455 kts 184°
2026-04-25 15:16 -17.15538 -48.48719 28998 ft 457 kts 184°
2026-04-25 15:16 -17.21895 -48.49249 29509 ft 460 kts 184°
2026-04-25 15:17 -17.28293 -48.49791 30024 ft 463 kts 184°
2026-04-25 15:17 -17.31508 -48.50064 30264 ft 465 kts 184°
2026-04-25 15:17 -17.34738 -48.50336 30512 ft 466 kts 184°
2026-04-25 15:18 -17.37976 -48.50606 30762 ft 468 kts 184°
2026-04-25 15:18 -17.44488 -48.51151 31301 ft 469 kts 184°
2026-04-25 15:18 -17.47737 -48.51424 31650 ft 468 kts 184°
2026-04-25 15:19 -17.50977 -48.51699 31999 ft 467 kts 184°
2026-04-25 15:19 -17.52033 -48.51789 32121 ft 467 kts 184°
2026-04-25 15:19 -17.57449 -48.52246 32653 ft 465 kts 184°
2026-04-25 15:19 -17.60673 -48.52519 32972 ft 465 kts 184°
2026-04-25 15:20 -17.63894 -48.52789 33288 ft 464 kts 184°
2026-04-25 15:20 -17.67104 -48.53058 33601 ft 463 kts 184°
2026-04-25 15:20 -17.70311 -48.53326 33910 ft 462 kts 184°
2026-04-25 15:20 -17.73518 -48.53596 34215 ft 461 kts 185°
2026-04-25 15:21 -17.76714 -48.53876 34518 ft 461 kts 185°
2026-04-25 15:21 -17.79906 -48.54165 34805 ft 459 kts 185°
2026-04-25 15:21 -17.83086 -48.54460 35086 ft 459 kts 185°
2026-04-25 15:21 -17.86272 -48.54756 35365 ft 459 kts 185°
2026-04-25 15:22 -17.89450 -48.55047 35643 ft 459 kts 185°
2026-04-25 15:22 -17.92626 -48.55335 35907 ft 458 kts 185°
2026-04-25 15:22 -17.95805 -48.55619 36100 ft 458 kts 185°
2026-04-25 15:22 -17.98975 -48.55898 36150 ft 456 kts 185°
2026-04-25 15:23 -18.05289 -48.56456 36149 ft 454 kts 185°
2026-04-25 15:23 -18.11590 -48.57022 36147 ft 454 kts 185°
2026-04-25 15:24 -18.16821 -48.57494 36155 ft 454 kts 185°
2026-04-25 15:24 -18.22051 -48.57969 36156 ft 454 kts 185°
2026-04-25 15:25 -18.29408 -48.58632 36158 ft 454 kts 185°
2026-04-25 15:25 -18.35706 -48.59193 36161 ft 454 kts 185°
2026-04-25 15:26 -18.42000 -48.59761 36163 ft 454 kts 185°
2026-04-25 15:26 -18.48307 -48.60331 36165 ft 455 kts 185°
2026-04-25 15:27 -18.54606 -48.60904 36167 ft 455 kts 185°
2026-04-25 15:28 -18.64070 -48.61758 36172 ft 455 kts 185°
2026-04-25 15:28 -18.70426 -48.62328 36175 ft 455 kts 185°
2026-04-25 15:29 -18.76691 -48.62897 36181 ft 455 kts 186°
2026-04-25 15:29 -18.83050 -48.63472 36182 ft 455 kts 186°
2026-04-25 15:30 -18.89351 -48.64051 36181 ft 454 kts 186°
2026-04-25 15:30 -18.95611 -48.64626 36171 ft 454 kts 186°
2026-04-25 15:31 -19.01915 -48.65189 36171 ft 454 kts 186°
2026-04-25 15:31 -19.08211 -48.65754 36174 ft 455 kts 186°
2026-04-25 15:32 -19.14517 -48.66334 36173 ft 454 kts 186°
2026-04-25 15:32 -19.20815 -48.66928 36174 ft 454 kts 186°
2026-04-25 15:33 -19.30249 -48.67918 36170 ft 454 kts 187°
2026-04-25 15:33 -19.36538 -48.68590 36168 ft 454 kts 187°
2026-04-25 15:34 -19.42870 -48.69247 36168 ft 454 kts 187°
2026-04-25 15:34 -19.48089 -48.69788 36167 ft 454 kts 187°
2026-04-25 15:35 -19.58582 -48.70875 36162 ft 454 kts 187°
2026-04-25 15:36 -19.68008 -48.71852 36158 ft 453 kts 187°
2026-04-25 15:36 -19.74251 -48.72505 36156 ft 454 kts 187°
2026-04-25 15:37 -19.80534 -48.73165 36155 ft 454 kts 187°
2026-04-25 15:37 -19.86860 -48.73828 36146 ft 453 kts 187°
2026-04-25 15:38 -19.93100 -48.74477 36142 ft 453 kts 187°
2026-04-25 15:38 -19.99376 -48.75126 36128 ft 453 kts 187°
2026-04-25 15:39 -20.05652 -48.75779 36130 ft 453 kts 188°
2026-04-25 15:39 -20.11971 -48.76445 36132 ft 453 kts 188°
2026-04-25 15:40 -20.16129 -48.76880 36126 ft 453 kts 188°
2026-04-25 15:40 -20.24480 -48.77762 36124 ft 453 kts 188°
2026-04-25 15:41 -20.30747 -48.78413 36119 ft 453 kts 188°
2026-04-25 15:41 -20.37022 -48.79069 36122 ft 453 kts 188°
2026-04-25 15:42 -20.43290 -48.79730 36119 ft 453 kts 188°
2026-04-25 15:42 -20.49566 -48.80383 36126 ft 453 kts 188°
2026-04-25 15:43 -20.55834 -48.81041 36122 ft 453 kts 188°
2026-04-25 15:43 -20.62105 -48.81701 36119 ft 453 kts 188°
2026-04-25 15:44 -20.68375 -48.82365 36112 ft 452 kts 188°
2026-04-25 15:44 -20.74607 -48.83242 36112 ft 451 kts 191°
2026-04-25 15:45 -20.80802 -48.84301 36111 ft 451 kts 192°
2026-04-25 15:45 -20.84945 -48.85010 36114 ft 451 kts 192°
2026-04-25 15:46 -20.93202 -48.86337 36109 ft 450 kts 191°
2026-04-25 15:46 -20.99406 -48.87317 36107 ft 450 kts 191°
2026-04-25 15:47 -21.05606 -48.88302 36107 ft 450 kts 191°
2026-04-25 15:47 -21.11803 -48.89293 36106 ft 451 kts 191°
2026-04-25 15:48 -21.18002 -48.90284 36106 ft 450 kts 191°
2026-04-25 15:48 -21.24198 -48.91271 36102 ft 450 kts 191°
2026-04-25 15:49 -21.30399 -48.92265 36102 ft 451 kts 192°
2026-04-25 15:49 -21.36612 -48.93264 36105 ft 451 kts 192°
2026-04-25 15:50 -21.42813 -48.94262 36109 ft 451 kts 192°
2026-04-25 15:50 -21.49015 -48.95253 36108 ft 451 kts 192°
2026-04-25 15:51 -21.53161 -48.95915 36109 ft 450 kts 192°
2026-04-25 15:51 -21.61419 -48.97241 36111 ft 450 kts 192°
2026-04-25 15:52 -21.67600 -48.98295 36111 ft 449 kts 194°
2026-04-25 15:52 -21.73691 -48.99744 36109 ft 448 kts 197°
2026-04-25 15:53 -21.79733 -49.01359 36104 ft 448 kts 197°
2026-04-25 15:53 -21.85795 -49.02918 36101 ft 448 kts 196°
2026-04-25 15:54 -21.91907 -49.04415 36099 ft 448 kts 196°
2026-04-25 15:54 -21.97996 -49.05897 36099 ft 448 kts 196°
2026-04-25 15:55 -22.04071 -49.07388 36103 ft 448 kts 197°
2026-04-25 15:55 -22.10140 -49.08888 36106 ft 447 kts 197°
2026-04-25 15:56 -22.16207 -49.10387 36107 ft 447 kts 197°
2026-04-25 15:56 -22.22269 -49.11887 36106 ft 447 kts 197°
2026-04-25 15:57 -22.28343 -49.13391 36106 ft 447 kts 197°
2026-04-25 15:57 -22.34402 -49.14895 36105 ft 447 kts 197°
2026-04-25 15:58 -22.40467 -49.16403 36107 ft 447 kts 197°
2026-04-25 15:58 -22.46478 -49.18057 36107 ft 445 kts 199°
2026-04-25 15:59 -22.52452 -49.19817 36106 ft 445 kts 199°
2026-04-25 15:59 -22.58536 -49.21130 36103 ft 451 kts 186°
2026-04-25 16:00 -22.62740 -49.21222 36103 ft 452 kts 185°
2026-04-25 16:00 -22.71104 -49.21378 36103 ft 452 kts 185°
2026-04-25 16:01 -22.76329 -49.21491 36101 ft 452 kts 185°
2026-04-25 16:01 -22.82619 -49.21631 36103 ft 452 kts 186°
2026-04-25 16:02 -22.88893 -49.21770 36103 ft 451 kts 186°
2026-04-25 16:02 -22.95162 -49.21903 36102 ft 451 kts 186°
2026-04-25 16:03 -23.01436 -49.22041 36102 ft 451 kts 186°
2026-04-25 16:03 -23.07701 -49.22179 36102 ft 450 kts 186°
2026-04-25 16:04 -23.13953 -49.22316 36101 ft 450 kts 186°
2026-04-25 16:04 -23.20216 -49.22451 36099 ft 450 kts 186°
2026-04-25 16:05 -23.26470 -49.22587 36099 ft 449 kts 186°
2026-04-25 16:06 -23.35846 -49.22800 36093 ft 449 kts 186°
2026-04-25 16:06 -23.42102 -49.22927 36100 ft 450 kts 186°
2026-04-25 16:07 -23.48353 -49.23057 36104 ft 449 kts 186°
2026-04-25 16:07 -23.54603 -49.23189 36103 ft 449 kts 186°
2026-04-25 16:08 -23.60839 -49.23334 36102 ft 448 kts 186°
2026-04-25 16:08 -23.67066 -49.23475 36097 ft 448 kts 186°
2026-04-25 16:09 -23.73296 -49.23605 36092 ft 448 kts 186°
2026-04-25 16:09 -23.79537 -49.23735 36092 ft 448 kts 186°
2026-04-25 16:10 -23.85768 -49.23873 36094 ft 448 kts 186°
2026-04-25 16:10 -23.92006 -49.24017 36095 ft 448 kts 186°
2026-04-25 16:11 -23.98236 -49.24161 36094 ft 448 kts 186°
2026-04-25 16:11 -24.04473 -49.24286 36094 ft 448 kts 187°
2026-04-25 16:12 -24.10713 -49.24425 36096 ft 448 kts 187°
2026-04-25 16:12 -24.16946 -49.24568 36096 ft 447 kts 187°
2026-04-25 16:13 -24.23165 -49.24705 36098 ft 447 kts 187°
2026-04-25 16:13 -24.29380 -49.24840 36103 ft 447 kts 187°
2026-04-25 16:14 -24.35591 -49.24978 36104 ft 447 kts 187°
2026-04-25 16:14 -24.41806 -49.25117 36103 ft 446 kts 187°
2026-04-25 16:15 -24.48009 -49.25256 36103 ft 446 kts 187°
2026-04-25 16:15 -24.54221 -49.25389 36104 ft 446 kts 187°
2026-04-25 16:16 -24.60435 -49.25527 36104 ft 446 kts 187°
2026-04-25 16:16 -24.66635 -49.25667 36103 ft 446 kts 187°
2026-04-25 16:17 -24.72835 -49.25799 36105 ft 446 kts 187°
2026-04-25 16:17 -24.79049 -49.25946 36113 ft 446 kts 187°
2026-04-25 16:18 -24.85257 -49.26081 36106 ft 446 kts 187°
2026-04-25 16:18 -24.91403 -49.26208 36102 ft 445 kts 188°
2026-04-25 16:19 -24.97595 -49.26354 36091 ft 446 kts 187°
2026-04-25 16:19 -25.03790 -49.26485 36100 ft 446 kts 188°
2026-04-25 16:20 -25.13087 -49.26688 36093 ft 445 kts 188°
2026-04-25 16:21 -25.22370 -49.26899 36091 ft 445 kts 188°
2026-04-25 16:21 -25.28572 -49.27046 36097 ft 445 kts 188°
2026-04-25 16:22 -25.34813 -49.27183 36103 ft 445 kts 188°
2026-04-25 16:22 -25.41008 -49.27315 36103 ft 445 kts 188°
2026-04-25 16:23 -25.47206 -49.27458 36104 ft 445 kts 188°
2026-04-25 16:23 -25.53397 -49.27599 36099 ft 445 kts 188°
2026-04-25 16:24 -25.59592 -49.27737 36087 ft 444 kts 188°
2026-04-25 16:24 -25.65764 -49.27879 36079 ft 444 kts 188°
2026-04-25 16:24 -25.68898 -49.27887 35957 ft 449 kts 184°
2026-04-25 16:25 -25.72021 -49.27428 35699 ft 455 kts 176°
2026-04-25 16:25 -25.78240 -49.26079 35201 ft 455 kts 176°
2026-04-25 16:25 -25.81342 -49.25406 34743 ft 454 kts 176°
2026-04-25 16:26 -25.84434 -49.24735 34243 ft 451 kts 176°
2026-04-25 16:26 -25.87512 -49.24067 33728 ft 449 kts 176°
2026-04-25 16:26 -25.90571 -49.23403 33210 ft 448 kts 176°
2026-04-25 16:26 -25.93616 -49.22745 32686 ft 446 kts 177°
2026-04-25 16:27 -25.96658 -49.22089 32158 ft 444 kts 176°
2026-04-25 16:27 -25.99682 -49.21433 31635 ft 441 kts 176°
2026-04-25 16:27 -26.02682 -49.20784 31121 ft 439 kts 177°
2026-04-25 16:27 -26.05667 -49.20136 30607 ft 437 kts 178°
2026-04-25 16:28 -26.08634 -49.19318 30120 ft 440 kts 172°
2026-04-25 16:28 -26.11566 -49.18335 29624 ft 438 kts 172°
2026-04-25 16:28 -26.14472 -49.17363 29148 ft 435 kts 172°
2026-04-25 16:28 -26.17359 -49.16399 28671 ft 432 kts 172°
2026-04-25 16:29 -26.20224 -49.15440 28211 ft 429 kts 172°
2026-04-25 16:29 -26.23072 -49.14487 27735 ft 426 kts 172°
2026-04-25 16:29 -26.25905 -49.13544 27308 ft 423 kts 172°
2026-04-25 16:29 -26.28717 -49.12608 26881 ft 421 kts 171°
2026-04-25 16:30 -26.31512 -49.11674 26443 ft 418 kts 171°
2026-04-25 16:30 -26.34292 -49.10743 26026 ft 416 kts 171°
2026-04-25 16:30 -26.37056 -49.09823 25592 ft 415 kts 171°
2026-04-25 16:30 -26.39821 -49.08904 25158 ft 412 kts 172°
2026-04-25 16:31 -26.42562 -49.07985 24724 ft 411 kts 171°
2026-04-25 16:31 -26.45293 -49.07056 24276 ft 406 kts 170°
2026-04-25 16:31 -26.47989 -49.06140 23838 ft 404 kts 171°
2026-04-25 16:31 -26.50678 -49.05223 23377 ft 403 kts 170°
2026-04-25 16:32 -26.53354 -49.04326 22934 ft 401 kts 171°
2026-04-25 16:32 -26.56034 -49.03504 22475 ft 398 kts 172°
2026-04-25 16:32 -26.58722 -49.02750 22019 ft 397 kts 173°
2026-04-25 16:32 -26.61385 -49.02029 21559 ft 394 kts 174°
2026-04-25 16:33 -26.64043 -49.01317 21108 ft 390 kts 173°
2026-04-25 16:33 -26.66665 -49.00605 20649 ft 386 kts 173°
2026-04-25 16:33 -26.69261 -48.99884 20202 ft 383 kts 172°
2026-04-25 16:33 -26.71833 -48.99158 19745 ft 380 kts 172°
2026-04-25 16:34 -26.74386 -48.98437 19294 ft 377 kts 172°
2026-04-25 16:34 -26.76920 -48.97747 18854 ft 372 kts 173°
2026-04-25 16:34 -26.79434 -48.97147 18412 ft 368 kts 174°
2026-04-25 16:34 -26.81931 -48.96604 17974 ft 363 kts 175°
2026-04-25 16:35 -26.84406 -48.96083 17540 ft 360 kts 175°
2026-04-25 16:35 -26.86858 -48.95563 17109 ft 357 kts 175°
2026-04-25 16:35 -26.89283 -48.95038 16688 ft 353 kts 174°
2026-04-25 16:35 -26.91685 -48.94511 16262 ft 350 kts 174°
2026-04-25 16:36 -26.94056 -48.93983 15846 ft 347 kts 174°
2026-04-25 16:36 -26.94823 -48.93813 15712 ft 346 kts 174°
2026-04-25 16:36 -26.98700 -48.92947 15020 ft 340 kts 174°
2026-04-25 16:36 -27.01018 -48.92427 14609 ft 338 kts 174°
2026-04-25 16:37 -27.03312 -48.91912 14206 ft 335 kts 174°
2026-04-25 16:37 -27.04814 -48.91576 13929 ft 332 kts 174°
2026-04-25 16:37 -27.07833 -48.90899 13397 ft 328 kts 174°
2026-04-25 16:37 -27.09310 -48.90568 13135 ft 327 kts 174°
2026-04-25 16:38 -27.11534 -48.90071 12737 ft 324 kts 173°
2026-04-25 16:38 -27.13737 -48.89578 12347 ft 322 kts 173°
2026-04-25 16:38 -27.15929 -48.89086 11955 ft 320 kts 173°
2026-04-25 16:38 -27.18100 -48.88600 11567 ft 318 kts 173°
2026-04-25 16:39 -27.20253 -48.88115 11337 ft 310 kts 173°
2026-04-25 16:39 -27.22345 -48.87645 10978 ft 305 kts 173°
2026-04-25 16:39 -27.24424 -48.87179 10522 ft 306 kts 173°
2026-04-25 16:39 -27.26502 -48.86714 10129 ft 304 kts 173°
2026-04-25 16:40 -27.28570 -48.86251 9767 ft 302 kts 173°
2026-04-25 16:40 -27.30632 -48.85791 9383 ft 300 kts 173°
2026-04-25 16:40 -27.32682 -48.85332 8992 ft 299 kts 173°
2026-04-25 16:40 -27.34711 -48.84875 8662 ft 295 kts 172°
2026-04-25 16:41 -27.36728 -48.84419 8255 ft 294 kts 172°
2026-04-25 16:41 -27.38056 -48.84116 8002 ft 294 kts 172°
2026-04-25 16:41 -27.42699 -48.83065 7125 ft 288 kts 172°
2026-04-25 16:42 -27.44663 -48.82622 6728 ft 287 kts 172°
2026-04-25 16:42 -27.46611 -48.82184 6343 ft 285 kts 172°
2026-04-25 16:42 -27.48551 -48.81751 5966 ft 283 kts 172°
2026-04-25 16:42 -27.50486 -48.81296 5509 ft 288 kts 167°
2026-04-25 16:43 -27.52305 -48.80329 5133 ft 292 kts 147°
2026-04-25 16:43 -27.53768 -48.78742 4774 ft 294 kts 127°
2026-04-25 16:43 -27.54864 -48.76788 4381 ft 295 kts 123°
2026-04-25 16:43 -27.55912 -48.74835 3985 ft 294 kts 122°
2026-04-25 16:44 -27.56946 -48.72921 3606 ft 278 kts 123°
2026-04-25 16:44 -27.57932 -48.71105 3252 ft 263 kts 123°
2026-04-25 16:44 -27.58860 -48.69393 2932 ft 245 kts 122°
2026-04-25 16:44 -27.59722 -48.67798 2587 ft 231 kts 123°
2026-04-25 16:45 -27.60532 -48.66300 2317 ft 210 kts 123°
2026-04-25 16:45 -27.61255 -48.64964 2062 ft 188 kts 123°
2026-04-25 16:45 -27.61898 -48.63771 1800 ft 171 kts 124°
2026-04-25 16:45 -27.62494 -48.62670 1578 ft 163 kts 124°
2026-04-25 16:46 -27.63088 -48.61575 1360 ft 160 kts 123°
2026-04-25 16:46 -27.63660 -48.60516 1154 ft 157 kts 123°
2026-04-25 16:46 -27.64223 -48.59474 947 ft 155 kts 123°
2026-04-25 16:46 -27.64589 -48.58791 813 ft 154 kts 123°
2026-04-25 16:47 -27.65335 -48.57416 543 ft 153 kts 123°
2026-04-25 16:47 -27.65889 -48.56391 337 ft 153 kts 122°
2026-04-25 16:47 -27.66442 -48.55364 135 ft 153 kts 123°
2026-04-25 16:47 -27.66985 -48.54357 33 ft 139 kts 122°
2026-04-25 16:48 -27.67377 -48.53626 23 ft 70 kts 122°
2026-04-25 16:48 -27.67530 -48.53342 27 ft 31 kts 121°
2026-04-25 16:48 -27.67630 -48.53161 26 ft 23 kts 122°
2026-04-25 16:48 -27.67688 -48.53073 27 ft 7 kts 154°
2026-04-25 16:49 -27.67740 -48.53089 29 ft 9 kts 209°
2026-04-25 16:49 -27.67802 -48.53135 26 ft 12 kts 223°
2026-04-25 16:49 -27.67789 -48.53219 25 ft 12 kts 302°
2026-04-25 16:49 -27.67745 -48.53301 27 ft 12 kts 301°
2026-04-25 16:50 -27.67702 -48.53382 27 ft 13 kts 301°
2026-04-25 16:50 -27.67654 -48.53470 28 ft 14 kts 301°
2026-04-25 16:50 -27.67600 -48.53570 27 ft 16 kts 301°
2026-04-25 16:50 -27.67541 -48.53679 27 ft 17 kts 301°
2026-04-25 16:51 -27.67492 -48.53771 27 ft 10 kts 301°
2026-04-25 16:51 -27.67454 -48.53842 27 ft 11 kts 301°
2026-04-25 16:51 -27.67411 -48.53921 27 ft 13 kts 302°
2026-04-25 16:51 -27.67379 -48.53980 27 ft 14 kts 301°
2026-04-25 16:52 -27.67341 -48.54049 28 ft 7 kts 301°
2026-04-25 16:52 -27.67312 -48.54103 28 ft 9 kts 301°
2026-04-25 16:52 -27.67277 -48.54167 28 ft 10 kts 301°
2026-04-25 16:52 -27.67237 -48.54240 28 ft 12 kts 301°
2026-04-25 16:53 -27.67249 -48.54347 29 ft 8 kts 216°
2026-04-25 16:53 -27.67289 -48.54379 29 ft 6 kts 225°
2026-04-25 16:53 -27.67292 -48.54417 29 ft 5 kts 281°
2026-04-25 16:54 -27.67270 -48.54459 29 ft 5 kts 306°
2026-04-25 16:54 -27.67274 -48.54475 29 ft 0 kts 221°
2026-04-25 16:54 -27.67279 -48.54486 29 ft 3 kts 240°
2026-04-25 16:54 -27.67291 -48.54496 29 ft 1 kts 213°
2026-04-25 16:55 -27.67297 -48.54501 29 ft 0 kts 213°
2026-04-25 16:55 -27.67299 -48.54503 29 ft 0 kts 213°